Wind_Speed
74 73 73 74 74 73 72 72 71 71 70 69 68 65 63 63 61 59 57 56 56 53 53 52 52 50 50 49 51 48 50 47 34 40 35 29 33 34 30 39 38 34 26 25 21
76 76 75 75 74 75 75 74 74 73 73 73 72 70 67 67 67 63 61 59 61 59 57 56 57 54 52 49 50 54 54 48 43 44 40 35 32 32 33 29 46 42 36 37 26
76 76 77 76 75 75 75 76 74 74 74 74 75 74 72 71 71 66 64 64 62 62 60 60 59 56 53 51 48 50 55 46 43 47 49 43 33 34 33 34 29 41 38 29 27
74 75 75 76 76 75 74 75 76 74 74 75 75 76 75 74 74 70 68 67 67 64 62 61 60 59 53 51 46 47 49 51 47 49 48 47 43 36 33 33 33 34 32 30 28
75 74 74 74 73 74 74 75 75 76 75 75 75 75 78 79 77 74 70 70 69 66 65 63 63 61 59 52 48 45 46 51 49 51 51 51 47 43 34 36 35 35 37 34 29
73 73 73 74 74 73 73 74 75 75 76 76 76 77 78 80 78 79 73 70 69 67 63 63 64 61 59 56 50 50 49 48 48 52 53 52 49 48 37 37 41 36 37 38 31
71 72 73 73 72 73 72 73 73 75 76 78 78 79 80 78 77 78 75 73 68 68 64 64 62 61 59 54 49 48 48 50 50 53 55 55 51 52 42 46 38 39 41 39 35
67 67 68 69 68 62 62 71 72 73 75 76 78 80 83 81 79 76 73 75 72 65 63 64 61 60 58 56 51 48 51 54 50 52 57 56 55 51 44 49 42 35 43 42 39
65 65 64 64 63 63 61 58 58 69 72 74 76 78 84 82 80 76 74 73 71 66 65 65 59 50 48 53 49 46 48 47 50 52 56 57 58 49 47 47 50 37 38 43 43
68 67 65 63 61 60 61 60 60 60 66 72 74 77 81 77 79 82 78 72 67 67 61 64 61 61 58 56 57 52 44 46 45 45 54 55 59 52 46 49 51 47 37 40 44
70 70 68 65 63 60 62 64 64 66 63 66 69 70 71 72 74 76 76 72 71 65 63 58 64 64 61 62 59 59 53 59 54 50 50 49 56 53 47 51 50 52 40 40 41
75 73 73 69 66 64 65 69 60 59 60 59 58 62 65 67 68 69 70 66 68 71 66 65 57 52 63 66 66 63 63 59 53 49 48 45 46 48 47 51 52 51 46 39 39
79 79 76 76 72 71 68 59 63 61 61 59 55 55 60 60 62 65 67 63 60 63 70 72 51 59 60 64 65 63 60 64 68 59 53 42 47 42 36 47 49 49 49 42 38
77 81 83 81 83 76 68 62 65 61 65 64 61 58 53 58 59 59 58 61 64 61 59 60 65 65 62 62 62 64 61 66 64 48 68 56 56 44 36 50 52 48 48 46 36
64 73 81 86 81 82 70 69 57 61 65 67 62 57 55 52 54 57 56 60 63 60 63 61 65 65 65 60 61 61 61 63 56 52 55 63 61 47 34 41 45 43 41 45 38
49 52 65 78 84 80 77 71 57 80 69 63 64 60 57 53 53 53 55 56 57 57 60 58 62 65 63 60 57 59 63 60 60 52 54 51 66 61 35 32 40 40 39 37 36
54 59 59 63 80 81 80 77 69 75 74 64 58 60 54 55 53 53 53 55 56 59 61 56 60 60 64 65 62 60 58 58 60 60 63 48 57 61 49 41 42 41 41 40 39
51 57 60 59 72 77 80 85 89 70 72 65 54 56 52 53 51 50 49 52 52 51 50 51 58 58 58 60 58 59 63 62 58 62 60 48 57 59 60 45 40 41 41 42 41
45 56 58 68 76 83 84 74 82 85 70 55 55 57 53 52 52 50 48 47 47 48 50 50 52 52 55 50 55 58 65 59 71 61 62 57 40 45 47 31 32 29 37 45 46
42 52 54 66 81 77 73 90 75 71 84 67 54 50 46 48 54 50 47 43 43 45 45 45 46 49 48 53 56 60 57 59 62 65 58 61 60 47 42 37 34 37 36 39 46
40 47 53 68 77 65 72 78 69 82 75 69 57 47 40 42 44 45 44 44 41 40 44 45 48 48 49 52 47 54 63 70 77 69 68 66 72 60 56 54 47 45 44 42 42
38 47 57 72 75 65 63 64 64 73 71 67 56 45 41 37 35 35 34 37 34 35 37 39 46 50 50 48 52 55 55 60 65 74 73 66 73 66 66 64 56 56 48 46 38
43 44 53 79 88 57 74 56 73 58 57 56 47 46 43 42 39 37 32 31 32 32 34 39 42 44 45 50 51 54 55 59 58 64 67 66 72 66 63 63 62 55 48 57 61
48 43 50 71 74 56 65 59 68 57 60 53 46 46 42 39 38 35 34 34 33 32 37 38 42 45 46 41 46 52 52 58 62 63 59 64 72 68 68 68 62 57 52 47 51
47 51 58 81 58 61 61 61 64 61 55 47 45 41 35 36 33 32 33 35 35 35 34 38 38 40 43 46 50 51 50 52 47 57 60 61 62 58 59 60 59 57 58 51 49
52 55 55 63 66 56 59 59 60 60 40 45 42 38 36 33 29 27 30 33 33 33 35 33 33 36 36 41 50 51 54 50 55 46 45 56 65 49 42 48 51 56 61 58 54
56 43 62 75 69 53 66 64 64 56 44 46 40 37 33 32 31 32 33 35 34 34 32 32 32 32 41 37 37 49 50 53 50 54 58 51 45 52 58 56 59 61 61 61 57
Wind_Direction
244 243 243 242 243 243 241 242 241 241 240 241 239 240 239 240 240 242 243 246 250 251 254 258 259 255 253 249 252 255 258 259 266 265 260 262 254 248 254 240 243 241 254 266 261
244 243 243 243 243 243 242 240 240 240 240 240 240 239 239 240 239 238 241 243 244 249 253 255 258 259 255 251 248 253 257 259 259 265 266 259 257 252 247 251 246 239 247 257 249
246 245 244 244 243 243 243 242 240 240 239 239 239 239 238 240 239 237 239 241 243 245 249 253 256 257 257 255 250 249 254 257 255 259 265 263 259 255 249 245 244 244 247 239 245
249 247 245 244 243 243 242 242 242 240 239 239 238 238 238 239 239 236 238 239 241 241 244 250 253 255 255 256 253 251 250 253 252 255 260 262 260 257 249 248 244 240 233 233 240
248 248 247 245 244 242 241 240 240 240 240 239 238 238 238 238 239 237 237 239 241 242 242 245 250 253 252 252 251 253 252 252 251 252 254 259 261 254 250 251 244 230 231 230 236
243 242 243 243 243 241 240 239 238 238 239 238 238 237 237 237 237 237 234 237 238 239 240 242 245 249 250 251 252 251 252 253 254 252 252 256 258 257 257 254 246 236 230 232 230
236 237 237 237 238 238 237 237 236 235 236 237 237 237 237 236 235 237 236 235 237 237 239 239 240 243 247 249 250 249 250 251 253 251 249 250 251 259 260 261 252 242 237 234 229
236 235 236 235 234 233 235 235 234 234 233 234 234 234 236 235 233 235 235 236 238 237 238 238 239 242 242 248 248 249 252 243 249 251 249 247 248 253 255 261 254 252 236 236 232
233 233 234 234 233 233 232 229 229 230 231 232 232 233 235 233 234 234 233 234 235 235 236 234 234 238 236 234 242 242 244 247 246 249 249 245 246 243 249 255 261 258 241 239 236
230 229 230 231 231 231 232 232 232 231 228 230 230 231 232 233 233 233 232 230 232 233 232 233 228 221 227 230 239 239 245 244 248 246 246 245 243 236 240 248 255 259 254 242 241
230 228 227 227 228 228 229 230 229 230 230 233 234 236 235 233 233 234 233 233 232 231 230 230 228 225 223 228 231 235 240 241 249 254 246 245 242 236 233 242 249 255 260 248 239
231 228 226 225 226 225 227 231 233 237 237 238 235 234 233 233 234 235 232 231 232 232 231 230 229 227 225 224 228 236 241 243 239 244 248 244 239 241 231 236 245 251 251 252 241
231 227 225 224 224 224 225 231 231 234 233 233 235 237 233 231 231 231 232 233 233 231 232 234 226 228 227 229 230 232 239 246 248 250 250 245 238 241 227 232 237 244 251 250 245
230 227 223 221 221 221 220 226 225 229 235 232 229 231 230 230 230 230 229 229 230 229 230 231 226 231 230 231 232 235 240 243 249 244 253 254 246 243 235 231 234 239 250 249 257
226 224 222 220 219 217 214 218 227 233 223 229 227 229 231 229 230 229 228 227 229 228 228 229 227 230 232 231 234 237 234 239 247 255 262 249 261 229 252 238 237 236 241 249 252
209 213 218 215 214 212 211 213 221 216 221 219 224 226 228 228 227 227 228 230 230 231 231 229 230 231 235 234 235 236 237 242 245 241 255 248 258 252 241 241 238 233 235 237 244
211 208 205 204 207 206 206 209 211 207 212 222 225 224 226 228 228 226 228 229 230 233 235 234 234 232 230 232 234 234 235 238 242 243 245 250 246 253 244 245 239 234 232 235 240
203 207 206 196 195 193 194 210 211 212 213 217 225 223 226 226 227 228 228 230 229 232 234 236 234 236 236 235 238 238 237 232 239 239 248 240 246 255 253 240 242 238 234 235 237
200 205 206 193 186 191 198 216 213 217 210 225 222 223 225 228 232 234 232 232 234 236 236 234 234 235 236 235 234 231 232 235 236 244 243 235 226 232 236 219 224 237 241 234 238
203 201 202 193 180 188 200 207 210 211 223 217 222 223 228 234 232 234 234 234 234 232 231 236 236 235 236 235 231 229 231 226 230 235 248 250 237 239 226 211 228 254 252 243 241
198 197 195 191 182 185 199 207 214 218 210 212 220 231 236 231 228 234 238 240 236 235 235 233 236 233 236 237 237 235 232 231 231 235 241 249 243 235 234 248 251 260 247 246 243
199 194 195 192 192 196 204 199 210 209 211 217 215 224 227 231 236 239 242 240 240 240 241 240 241 237 238 240 235 234 235 240 245 246 249 252 247 238 243 254 268 262 247 242 247
199 187 190 186 189 197 198 200 205 211 207 206 220 219 223 229 232 233 234 236 237 239 238 236 238 240 238 238 239 240 235 238 241 245 248 253 253 243 253 258 257 264 262 248 250
195 178 186 191 193 193 192 199 205 208 216 212 214 216 224 229 231 232 236 237 241 239 240 239 240 241 242 244 246 242 240 238 239 241 247 250 249 238 243 247 248 251 259 255 247
187 187 193 181 193 191 193 205 201 208 204 210 215 215 223 226 234 239 239 237 237 239 243 245 247 248 246 244 241 241 239 236 243 245 246 246 248 238 239 246 245 245 249 246 240
171 194 179 197 180 191 193 201 205 199 207 205 207 223 235 235 241 243 242 241 241 242 243 247 250 248 252 251 247 246 240 238 235 236 248 250 245 237 233 236 241 240 241 240 238
182 175 190 184 187 193 200 205 201 203 217 211 225 231 236 238 236 235 234 236 237 237 238 240 245 247 240 244 247 247 244 245 245 245 242 240 246 234 228 244 246 242 242 240 238
Height
5693 5699 5705 5712 5717 5723 5731 5736 5742 5747 5753 5758 5765 5769 5774 5777 5782 5788 5794 5798 5801 5805 5808 5812 5816 5818 5821 5826 5829 5833 5836 5841 5848 5847 5848 5850 5851 5852 5854 5857 5859 5861 5862 5863 5864
5676 5683 5690 5697 5703 5709 5716 5723 5728 5734 5740 5745 5752 5757 5762 5766 5770 5779 5785 5791 5793 5797 5800 5804 5809 5812 5815 5819 5823 5825 5829 5836 5842 5841 5843 5844 5845 5847 5849 5850 5852 5855 5857 5860 5861
5659 5666 5672 5680 5687 5694 5701 5708 5714 5721 5727 5732 5737 5744 5750 5752 5757 5774 5776 5780 5784 5789 5792 5796 5800 5804 5807 5811 5815 5820 5823 5829 5833 5833 5836 5839 5842 5841 5844 5845 5846 5847 5852 5855 5856
5640 5648 5656 5663 5670 5678 5686 5693 5700 5706 5713 5718 5724 5730 5736 5736 5746 5759 5765 5769 5774 5780 5785 5787 5793 5797 5801 5804 5807 5811 5816 5819 5825 5825 5829 5832 5836 5837 5838 5843 5840 5841 5846 5849 5850
5622 5630 5638 5646 5654 5662 5670 5678 5685 5691 5698 5704 5710 5716 5718 5723 5738 5746 5755 5759 5764 5771 5776 5779 5784 5788 5792 5797 5798 5804 5808 5810 5816 5817 5820 5824 5830 5831 5833 5835 5834 5835 5839 5843 5845
5602 5610 5618 5627 5636 5645 5653 5662 5670 5677 5682 5689 5695 5700 5704 5714 5721 5729 5744 5748 5755 5760 5766 5770 5774 5779 5782 5784 5790 5792 5799 5802 5806 5811 5812 5817 5822 5823 5829 5829 5827 5831 5834 5837 5837
5584 5592 5601 5610 5619 5628 5637 5645 5653 5661 5667 5673 5678 5684 5686 5708 5708 5717 5732 5738 5742 5748 5753 5759 5763 5767 5773 5775 5782 5784 5790 5793 5798 5802 5801 5807 5814 5818 5822 5821 5822 5824 5828 5830 5831
5569 5578 5586 5595 5604 5613 5621 5631 5638 5643 5650 5655 5661 5668 5671 5682 5696 5708 5720 5727 5732 5739 5744 5748 5753 5757 5762 5767 5772 5776 5777 5783 5793 5791 5792 5795 5808 5809 5813 5813 5817 5818 5821 5823 5825
5554 5564 5573 5583 5592 5601 5610 5617 5621 5627 5633 5638 5644 5650 5653 5675 5687 5701 5708 5715 5719 5724 5730 5736 5741 5750 5754 5757 5760 5765 5771 5777 5780 5779 5782 5784 5795 5802 5804 5806 5809 5811 5813 5816 5818
5539 5549 5560 5571 5582 5591 5599 5605 5609 5611 5617 5621 5629 5633 5643 5669 5676 5681 5691 5699 5703 5710 5715 5722 5729 5735 5741 5745 5751 5758 5762 5768 5769 5774 5769 5775 5780 5789 5794 5797 5801 5806 5806 5809 5811
5522 5535 5546 5558 5569 5579 5586 5589 5592 5595 5602 5613 5625 5636 5646 5655 5661 5670 5683 5687 5691 5696 5707 5713 5714 5722 5734 5739 5744 5746 5752 5757 5764 5763 5759 5768 5767 5775 5783 5787 5792 5799 5802 5802 5804
5504 5519 5532 5545 5557 5567 5571 5574 5593 5601 5604 5607 5617 5620 5631 5642 5651 5659 5668 5669 5676 5687 5698 5696 5702 5729 5722 5725 5731 5736 5742 5752 5754 5754 5755 5758 5758 5764 5772 5777 5784 5789 5796 5798 5799
5484 5500 5515 5530 5543 5550 5561 5575 5581 5588 5590 5597 5608 5611 5622 5631 5638 5647 5654 5663 5669 5676 5680 5685 5714 5703 5707 5714 5721 5728 5735 5744 5745 5744 5745 5747 5747 5755 5766 5768 5773 5781 5788 5793 5795
5463 5479 5497 5511 5521 5539 5552 5562 5568 5578 5578 5583 5593 5601 5612 5620 5628 5636 5645 5650 5654 5664 5672 5674 5696 5690 5698 5705 5714 5718 5731 5732 5735 5735 5738 5738 5737 5746 5759 5758 5763 5773 5780 5787 5789
5444 5458 5474 5488 5512 5522 5551 5555 5564 5567 5561 5570 5583 5596 5604 5613 5622 5627 5633 5636 5645 5655 5656 5669 5679 5680 5686 5701 5700 5715 5714 5721 5723 5724 5727 5729 5727 5744 5748 5753 5761 5767 5772 5778 5781
5430 5441 5454 5470 5487 5518 5535 5549 5557 5544 5543 5553 5572 5584 5595 5604 5610 5618 5624 5630 5637 5641 5646 5661 5662 5670 5688 5692 5692 5703 5706 5710 5713 5716 5710 5723 5720 5726 5743 5753 5755 5759 5763 5767 5771
5420 5430 5440 5455 5478 5502 5521 5531 5536 5526 5533 5547 5567 5578 5590 5596 5603 5609 5615 5621 5627 5632 5640 5653 5655 5664 5669 5674 5683 5690 5696 5699 5701 5701 5703 5716 5704 5718 5736 5743 5745 5751 5755 5757 5762
5411 5421 5433 5448 5466 5489 5507 5514 5515 5518 5526 5549 5564 5573 5583 5589 5595 5604 5608 5612 5619 5628 5634 5638 5644 5654 5667 5667 5678 5682 5686 5687 5690 5692 5704 5695 5691 5711 5725 5734 5738 5744 5748 5750 5751
5404 5413 5423 5439 5457 5478 5490 5494 5501 5515 5530 5545 5558 5565 5574 5581 5590 5596 5603 5609 5615 5621 5626 5630 5635 5645 5646 5663 5664 5670 5665 5685 5680 5683 5682 5681 5698 5704 5712 5724 5729 5736 5739 5742 5742
5398 5407 5419 5434 5452 5469 5476 5487 5493 5513 5529 5543 5552 5561 5568 5575 5581 5588 5594 5604 5608 5613 5618 5624 5630 5633 5642 5642 5646 5650 5667 5670 5668 5669 5667 5669 5686 5698 5706 5712 5718 5726 5732 5732 5733
5393 5401 5415 5428 5446 5455 5465 5483 5497 5509 5523 5536 5546 5558 5563 5569 5577 5583 5591 5595 5601 5606 5609 5615 5618 5625 5626 5628 5642 5645 5646 5649 5651 5652 5655 5661 5670 5700 5696 5699 5707 5716 5718 5721 5724
5392 5396 5410 5423 5434 5447 5463 5478 5492 5505 5518 5531 5544 5553 5560 5567 5572 5577 5584 5589 5593 5599 5604 5609 5607 5612 5618 5622 5626 5628 5634 5638 5638 5645 5646 5649 5652 5684 5685 5690 5697 5702 5709 5710 5712
5388 5397 5408 5423 5429 5442 5458 5474 5491 5503 5516 5526 5537 5548 5554 5560 5565 5571 5576 5580 5585 5590 5594 5599 5599 5603 5608 5612 5615 5619 5630 5630 5632 5635 5632 5636 5645 5677 5676 5678 5684 5690 5694 5696 5700
5385 5395 5404 5413 5431 5444 5457 5470 5485 5496 5512 5522 5533 5540 5546 5554 5560 5565 5569 5573 5577 5582 5585 5589 5592 5594 5599 5610 5609 5609 5614 5617 5620 5619 5626 5627 5641 5664 5666 5668 5673 5676 5680 5683 5685
5382 5391 5401 5413 5428 5445 5458 5470 5483 5497 5508 5519 5527 5535 5543 5549 5555 5559 5562 5566 5571 5575 5578 5580 5584 5586 5592 5593 5595 5597 5605 5609 5609 5614 5610 5626 5627 5649 5655 5658 5655 5661 5667 5669 5672
5385 5393 5405 5420 5434 5447 5459 5471 5487 5496 5508 5516 5525 5532 5539 5544 5550 5554 5559 5562 5566 5569 5572 5574 5577 5578 5581 5582 5585 5587 5592 5596 5601 5605 5604 5610 5615 5641 5647 5642 5647 5647 5644 5656 5663
5386 5400 5415 5424 5438 5450 5461 5473 5484 5497 5506 5517 5524 5530 5534 5538 5543 5548 5552 5554 5559 5562 5564 5567 5569 5571 5575 5573 5573 5572 5589 5589 5593 5594 5598 5596 5612 5629 5632 5632 5624 5624 5638 5646 5651